SWR788D EBBR-LSZH

Flight info

Callsign SWR788D
Flight time 0h 47m
Altitude 31000
Route ROUSY GTQ BAMEV BLM
Aircraft A350/H-SDE2E3GHIJ3J4J5LM1ORWXY/LB1D1

Departure

Time 2026-05-06 17:52
Airport Brussels Airport (EBBR)

Arrival

Time 2026-05-06 18:39
Airport Zürich Airport (LSZH)
Time Latitude Longitude Altitude Speed Heading
2026-05-06 17:21 50.90019 4.48457 150 ft 0 kts 155°
2026-05-06 17:39 50.90024 4.48453 123 ft 3 kts 155°
2026-05-06 17:39 50.90041 4.48434 149 ft 3 kts 114°
2026-05-06 17:40 50.90045 4.48402 149 ft 3 kts 71°
2026-05-06 17:40 50.90044 4.48399 149 ft 0 kts 71°
2026-05-06 17:44 50.90057 4.48428 149 ft 14 kts 54°
2026-05-06 17:44 50.90112 4.48575 148 ft 16 kts 66°
2026-05-06 17:45 50.90161 4.48751 149 ft 18 kts 66°
2026-05-06 17:45 50.90219 4.48948 148 ft 20 kts 64°
2026-05-06 17:45 50.90282 4.49158 146 ft 23 kts 64°
2026-05-06 17:45 50.90331 4.49365 143 ft 12 kts 96°
2026-05-06 17:46 50.90285 4.49404 144 ft 16 kts 185°
2026-05-06 17:46 50.90149 4.49351 146 ft 21 kts 194°
2026-05-06 17:46 50.90002 4.49292 150 ft 22 kts 194°
2026-05-06 17:46 50.89849 4.49230 153 ft 23 kts 194°
2026-05-06 17:47 50.89677 4.49160 150 ft 25 kts 195°
2026-05-06 17:47 50.89609 4.49120 150 ft 18 kts 218°
2026-05-06 17:47 50.89410 4.49007 151 ft 30 kts 194°
2026-05-06 17:47 50.89274 4.48804 148 ft 29 kts 250°
2026-05-06 17:48 50.89201 4.48499 146 ft 31 kts 249°
2026-05-06 17:48 50.89139 4.48226 144 ft 22 kts 251°
2026-05-06 17:48 50.89095 4.48026 142 ft 0 kts 250°
2026-05-06 17:49 50.89084 4.47979 141 ft 13 kts 250°
2026-05-06 17:49 50.89003 4.47907 137 ft 20 kts 169°
2026-05-06 17:50 50.88934 4.48026 127 ft 14 kts 104°
2026-05-06 17:50 50.88934 4.48171 130 ft 13 kts 72°
2026-05-06 17:50 50.88943 4.48212 129 ft 0 kts 71°
2026-05-06 17:51 50.88944 4.48215 130 ft 5 kts 70°
2026-05-06 17:51 50.89034 4.48603 142 ft 75 kts 70°
2026-05-06 17:52 50.89292 4.49721 153 ft 139 kts 70°
2026-05-06 17:52 50.89653 4.51325 635 ft 155 kts 68°
2026-05-06 17:52 50.90074 4.52846 1491 ft 151 kts 60°
2026-05-06 17:52 50.90601 4.54440 1913 ft 178 kts 61°
2026-05-06 17:53 50.91217 4.56340 2215 ft 210 kts 62°
2026-05-06 17:53 50.91917 4.58521 2586 ft 238 kts 62°
2026-05-06 17:53 50.92680 4.60925 3385 ft 247 kts 62°
2026-05-06 17:53 50.93450 4.63396 4225 ft 253 kts 63°
2026-05-06 17:54 50.94069 4.66047 5083 ft 259 kts 70°
2026-05-06 17:54 50.94607 4.68808 5867 ft 265 kts 71°
2026-05-06 17:54 50.95145 4.71643 6716 ft 271 kts 70°
2026-05-06 17:54 50.95563 4.74600 7585 ft 279 kts 82°
2026-05-06 17:55 50.95315 4.77627 8545 ft 286 kts 109°
2026-05-06 17:55 50.94192 4.80295 9500 ft 291 kts 135°
2026-05-06 17:55 50.92648 4.82416 10371 ft 300 kts 140°
2026-05-06 17:55 50.90963 4.84569 10768 ft 323 kts 141°
2026-05-06 17:56 50.89127 4.86755 11160 ft 344 kts 148°
2026-05-06 17:56 50.86876 4.88142 11919 ft 350 kts 171°
2026-05-06 17:56 50.84459 4.88635 12895 ft 351 kts 175°
2026-05-06 17:56 50.82010 4.88994 13757 ft 356 kts 176°
2026-05-06 17:57 50.79517 4.89358 14488 ft 362 kts 176°
2026-05-06 17:57 50.77000 4.89735 15302 ft 364 kts 176°
2026-05-06 17:57 50.74459 4.90124 16124 ft 367 kts 176°
2026-05-06 17:57 50.71913 4.90517 16966 ft 369 kts 176°
2026-05-06 17:58 50.69386 4.91016 17814 ft 373 kts 171°
2026-05-06 17:58 50.66874 4.92175 18584 ft 378 kts 159°
2026-05-06 17:58 50.64558 4.94218 19303 ft 385 kts 145°
2026-05-06 17:58 50.62525 4.97000 20007 ft 390 kts 137°
2026-05-06 17:59 50.60576 5.00041 20714 ft 394 kts 136°
2026-05-06 17:59 50.58630 5.03104 21445 ft 398 kts 136°
2026-05-06 17:59 50.56683 5.06149 22123 ft 402 kts 136°
2026-05-06 17:59 50.54657 5.09300 22809 ft 407 kts 136°
2026-05-06 18:00 50.52654 5.12399 23527 ft 409 kts 136°
2026-05-06 18:00 50.50628 5.15528 24264 ft 408 kts 136°
2026-05-06 18:00 50.48594 5.18663 24848 ft 412 kts 136°
2026-05-06 18:00 50.46537 5.21829 25435 ft 415 kts 136°
2026-05-06 18:01 50.44466 5.25010 26043 ft 417 kts 136°
2026-05-06 18:01 50.42385 5.28203 26637 ft 420 kts 136°
2026-05-06 18:01 50.40290 5.31413 27241 ft 422 kts 137°
2026-05-06 18:01 50.38177 5.34644 27811 ft 425 kts 137°
2026-05-06 18:02 50.36050 5.37895 28373 ft 428 kts 137°
2026-05-06 18:02 50.33909 5.41160 28962 ft 431 kts 137°
2026-05-06 18:02 50.31784 5.44398 29456 ft 434 kts 137°
2026-05-06 18:02 50.29610 5.47706 29967 ft 437 kts 137°
2026-05-06 18:03 50.27416 5.51039 30419 ft 439 kts 136°
2026-05-06 18:03 50.25215 5.54380 30778 ft 443 kts 136°
2026-05-06 18:03 50.23016 5.57713 30870 ft 432 kts 137°
2026-05-06 18:03 50.20896 5.60925 30881 ft 416 kts 137°
2026-05-06 18:04 50.18879 5.63976 30882 ft 402 kts 137°
2026-05-06 18:04 50.16874 5.67003 30882 ft 399 kts 137°
2026-05-06 18:04 50.12879 5.73022 30874 ft 400 kts 137°
2026-05-06 18:05 50.08795 5.78888 30870 ft 398 kts 144°
2026-05-06 18:05 50.06452 5.81161 30872 ft 396 kts 155°
2026-05-06 18:05 50.03891 5.82763 30871 ft 396 kts 162°
2026-05-06 18:06 49.98688 5.85436 30859 ft 403 kts 162°
2026-05-06 18:06 49.95966 5.86823 30856 ft 417 kts 162°
2026-05-06 18:06 49.93165 5.88258 30858 ft 430 kts 162°
2026-05-06 18:07 49.90279 5.89740 30851 ft 443 kts 162°
2026-05-06 18:07 49.87303 5.91269 30850 ft 456 kts 162°
2026-05-06 18:07 49.84278 5.92822 30852 ft 469 kts 162°
2026-05-06 18:07 49.81149 5.94427 30853 ft 476 kts 162°
2026-05-06 18:08 49.74904 5.97628 30856 ft 470 kts 162°
2026-05-06 18:08 49.68703 6.00797 30854 ft 469 kts 162°
2026-05-06 18:09 49.62491 6.03962 30859 ft 469 kts 162°
2026-05-06 18:09 49.56319 6.07097 30859 ft 469 kts 162°
2026-05-06 18:10 49.50127 6.10260 30850 ft 469 kts 161°
2026-05-06 18:10 49.47166 6.12376 30852 ft 470 kts 149°
2026-05-06 18:10 49.44478 6.15249 30849 ft 470 kts 144°
2026-05-06 18:11 49.39352 6.21521 30849 ft 471 kts 141°
2026-05-06 18:11 49.34304 6.27920 30845 ft 470 kts 141°
2026-05-06 18:12 49.29266 6.34217 30845 ft 469 kts 141°
2026-05-06 18:12 49.24183 6.40485 30861 ft 469 kts 142°
2026-05-06 18:13 49.19089 6.46725 30851 ft 469 kts 142°
2026-05-06 18:13 49.13991 6.52953 30868 ft 469 kts 142°
2026-05-06 18:14 49.08882 6.59179 30875 ft 470 kts 141°
2026-05-06 18:14 49.03757 6.65411 30864 ft 471 kts 141°
2026-05-06 18:15 48.98540 6.71307 30866 ft 470 kts 152°
2026-05-06 18:15 48.92551 6.75361 30870 ft 470 kts 158°
2026-05-06 18:16 48.86477 6.78950 30864 ft 470 kts 159°
2026-05-06 18:16 48.80362 6.82491 30860 ft 470 kts 159°
2026-05-06 18:17 48.74250 6.86063 30857 ft 470 kts 159°
2026-05-06 18:17 48.68177 6.89632 30865 ft 470 kts 158°
2026-05-06 18:18 48.62534 6.92947 30868 ft 470 kts 158°
2026-05-06 18:18 48.56437 6.96517 30862 ft 468 kts 158°
2026-05-06 18:19 48.50511 6.99976 30655 ft 446 kts 158°
2026-05-06 18:19 48.47649 7.01642 30418 ft 435 kts 158°
2026-05-06 18:19 48.44853 7.03268 30180 ft 425 kts 158°
2026-05-06 18:20 48.42113 7.04861 29952 ft 421 kts 158°
2026-05-06 18:20 48.39401 7.06438 29624 ft 414 kts 158°
2026-05-06 18:20 48.36735 7.07987 29171 ft 408 kts 158°
2026-05-06 18:20 48.34100 7.09517 28722 ft 403 kts 158°
2026-05-06 18:21 48.31494 7.11026 28264 ft 399 kts 158°
2026-05-06 18:21 48.28917 7.12517 27804 ft 395 kts 158°
2026-05-06 18:21 48.26361 7.13995 27336 ft 391 kts 158°
2026-05-06 18:21 48.23860 7.15438 26876 ft 388 kts 158°
2026-05-06 18:22 48.21348 7.16886 26434 ft 385 kts 158°
2026-05-06 18:22 48.18856 7.18323 25981 ft 383 kts 158°
2026-05-06 18:22 48.16372 7.19753 25516 ft 381 kts 158°
2026-05-06 18:22 48.13907 7.21170 25046 ft 379 kts 158°
2026-05-06 18:23 48.11448 7.22580 24597 ft 377 kts 158°
2026-05-06 18:23 48.09002 7.23982 24133 ft 375 kts 158°
2026-05-06 18:23 48.06565 7.25380 23665 ft 374 kts 159°
2026-05-06 18:23 48.04140 7.26766 23182 ft 372 kts 159°
2026-05-06 18:24 48.01732 7.28142 22654 ft 369 kts 159°
2026-05-06 18:24 47.99345 7.29506 22215 ft 366 kts 159°
2026-05-06 18:24 47.97003 7.30845 21764 ft 362 kts 160°
2026-05-06 18:24 47.94661 7.32181 21310 ft 359 kts 160°
2026-05-06 18:25 47.92334 7.33507 20839 ft 357 kts 161°
2026-05-06 18:25 47.90018 7.34824 20395 ft 354 kts 161°
2026-05-06 18:25 47.87716 7.36133 19934 ft 352 kts 161°
2026-05-06 18:25 47.85431 7.37430 19492 ft 351 kts 161°
2026-05-06 18:26 47.83155 7.38722 19033 ft 349 kts 161°
2026-05-06 18:26 47.80887 7.40008 18606 ft 348 kts 161°
2026-05-06 18:26 47.78626 7.41288 18147 ft 347 kts 161°
2026-05-06 18:26 47.76367 7.42565 17657 ft 346 kts 161°
2026-05-06 18:27 47.74156 7.43815 17223 ft 343 kts 161°
2026-05-06 18:27 47.71925 7.45075 16778 ft 341 kts 161°
2026-05-06 18:27 47.69713 7.46324 16336 ft 339 kts 161°
2026-05-06 18:27 47.67516 7.47562 15894 ft 337 kts 161°
2026-05-06 18:28 47.65369 7.48942 15441 ft 337 kts 153°
2026-05-06 18:28 47.63529 7.51104 15011 ft 340 kts 133°
2026-05-06 18:28 47.62635 7.53010 14714 ft 342 kts 119°
2026-05-06 18:28 47.61728 7.56277 14253 ft 343 kts 111°
2026-05-06 18:29 47.60966 7.59622 13818 ft 342 kts 111°
2026-05-06 18:29 47.60208 7.62962 13330 ft 342 kts 111°
2026-05-06 18:29 47.59193 7.67371 12729 ft 339 kts 111°
2026-05-06 18:29 47.58427 7.70663 12281 ft 337 kts 111°
2026-05-06 18:30 47.57907 7.72885 12033 ft 339 kts 111°
2026-05-06 18:30 47.57135 7.76179 11644 ft 345 kts 111°
2026-05-06 18:30 47.56347 7.79533 11084 ft 344 kts 111°
2026-05-06 18:30 47.55559 7.82871 10636 ft 342 kts 111°
2026-05-06 18:31 47.54789 7.86138 10414 ft 330 kts 111°
2026-05-06 18:31 47.54045 7.89288 10226 ft 315 kts 111°
2026-05-06 18:31 47.53335 7.92290 9561 ft 307 kts 111°
2026-05-06 18:31 47.52626 7.95277 8956 ft 307 kts 112°
2026-05-06 18:32 47.51931 7.98199 8573 ft 303 kts 112°
2026-05-06 18:32 47.51239 8.01133 8103 ft 302 kts 111°
2026-05-06 18:32 47.50902 8.04196 7637 ft 304 kts 88°
2026-05-06 18:32 47.51420 8.07204 7239 ft 303 kts 67°
2026-05-06 18:33 47.52275 8.10057 6834 ft 302 kts 64°
2026-05-06 18:33 47.53157 8.12871 6424 ft 300 kts 65°
2026-05-06 18:33 47.54022 8.15667 6067 ft 298 kts 66°
2026-05-06 18:33 47.54877 8.18456 5676 ft 296 kts 64°
2026-05-06 18:34 47.55721 8.21221 5350 ft 291 kts 65°
2026-05-06 18:34 47.56530 8.23889 5270 ft 277 kts 65°
2026-05-06 18:34 47.57290 8.26405 5175 ft 265 kts 65°
2026-05-06 18:34 47.58035 8.28873 5065 ft 253 kts 65°
2026-05-06 18:35 47.58730 8.31178 4956 ft 242 kts 65°
2026-05-06 18:35 47.59401 8.33412 4878 ft 232 kts 64°
2026-05-06 18:35 47.59865 8.35639 4699 ft 225 kts 91°
2026-05-06 18:35 47.59464 8.37804 4466 ft 216 kts 119°
2026-05-06 18:36 47.58590 8.39565 4243 ft 209 kts 146°
2026-05-06 18:36 47.57464 8.40897 4033 ft 207 kts 147°
2026-05-06 18:36 47.56405 8.42325 3764 ft 210 kts 139°
2026-05-06 18:36 47.55361 8.43827 3470 ft 208 kts 143°
2026-05-06 18:37 47.54301 8.45246 3203 ft 200 kts 141°
2026-05-06 18:37 47.53324 8.46597 2955 ft 183 kts 140°
2026-05-06 18:37 47.52418 8.47844 2696 ft 173 kts 143°
2026-05-06 18:37 47.51552 8.49022 2465 ft 167 kts 141°
2026-05-06 18:38 47.50719 8.50165 2190 ft 157 kts 141°
2026-05-06 18:38 47.49949 8.51220 1987 ft 147 kts 139°
2026-05-06 18:38 47.49230 8.52206 1785 ft 139 kts 139°
2026-05-06 18:38 47.48528 8.53165 1617 ft 136 kts 140°
2026-05-06 18:39 47.47831 8.54118 1441 ft 136 kts 139°
2026-05-06 18:39 47.47171 8.55023 1409 ft 119 kts 137°
2026-05-06 18:39 47.46773 8.55564 1412 ft 36 kts 140°
2026-05-06 18:40 47.46681 8.55674 1411 ft 14 kts 134°
2026-05-06 18:40 47.46609 8.55796 1409 ft 18 kts 133°
2026-05-06 18:40 47.46505 8.55917 1407 ft 16 kts 168°
2026-05-06 18:40 47.46394 8.55954 1408 ft 16 kts 167°
2026-05-06 18:41 47.46281 8.55982 1405 ft 16 kts 174°
2026-05-06 18:41 47.46163 8.55996 1414 ft 17 kts 179°
2026-05-06 18:41 47.46044 8.55980 1413 ft 17 kts 186°
2026-05-06 18:41 47.45987 8.55971 1414 ft 1 kts 186°
2026-05-06 18:42 47.45938 8.55929 1415 ft 7 kts 245°
2026-05-06 18:42 47.45952 8.55831 1415 ft 8 kts 313°
2026-05-06 18:42 47.46009 8.55829 1408 ft 11 kts
2026-05-06 18:42 47.46033 8.55832 1411 ft 0 kts